Location: Baggett Branch
(32.6074°N, 97.0167°W)
Time: 23:39:31
(UTC+00:00)

Hubble Space Telescope - Visible Passes

Search period start: 16 April 2026 00:00
Search period end: 26 April 2026 00:00
Orbit: 474 x 477 km, 28.5° (Epoch: 16 April)

Date Brightness Start Highest point End Pass type
(mag) Time Alt. Az. Time Alt. Az. Time Alt. Az.
16 Apr 3.1 09:50:55 13° SE 09:50:55 13° SE 09:51:27 10° SE visible
16 Apr 2.5 11:25:22 10° SW 11:27:20 14° SSW 11:29:19 10° S visible
17 Apr 2.5 10:55:58 14° SSW 10:56:10 14° SSW 10:58:11 10° S visible
23 Apr 2.5 02:47:35 10° SW 02:48:55 18° SSW 02:48:55 18° SSW visible
24 Apr 1.6 02:16:23 10° SW 02:19:35 26° SSE 02:19:55 26° SSE visible
25 Apr 1.7 01:45:10 10° SW 01:48:22 26° SSE 01:50:46 14° ESE visible
25 Apr 3.2 03:24:13 10° WSW 03:24:50 14° WSW 03:24:50 14° WSW visible
